EHI
0 0 1 2 2 1 0 0 0 0 0 0 0 0 2 3 4 4 6 12 23 27 25 30 33 28 18 11 8 9 7 5 4 4 7 10 12 11 10 8 8 10 9 6 5 4 3 1 0
0 1 1 1 1 0 0 0 0 0 0 0 1 1 3 4 4 4 6 10 19 24 26 31 35 30 20 11 8 8 7 4 4 5 8 11 12 11 9 7 7 8 7 6 4 3 3 2 1
0 1 1 1 0 0 0 0 0 0 0 1 4 6 6 5 6 8 8 9 15 23 31 38 40 35 24 14 9 9 7 5 4 5 8 11 12 11 9 7 7 7 7 6 5 4 5 5 4
0 0 0 0 0 0 0 0 0 0 1 3 8 11 11 10 11 13 13 12 17 26 34 42 45 39 28 18 13 11 9 7 6 6 8 10 12 12 10 9 10 9 9 9 7 7 8 9 8
0 0 0 0 0 0 0 0 0 1 2 6 10 14 16 15 15 16 15 17 21 27 33 39 43 40 30 22 17 13 12 11 10 9 8 9 11 13 13 14 14 12 12 11 10 10 12 12 10
0 0 0 0 0 0 0 1 1 2 4 7 10 14 17 17 16 16 16 18 21 25 29 35 38 37 30 25 20 17 16 16 16 13 11 10 13 16 17 18 18 16 16 14 12 12 12 11 10
0 0 0 0 0 0 0 2 4 4 5 6 9 13 17 17 17 16 17 18 19 21 25 29 31 31 28 27 25 25 25 25 23 19 15 15 17 18 18 18 18 18 18 16 14 12 10 9 8
0 0 0 0 0 0 0 2 5 5 5 6 9 13 17 18 18 17 18 18 18 19 21 23 25 25 24 26 28 29 31 31 27 23 21 20 18 17 16 16 17 18 17 15 13 11 9 8 7
0 0 0 0 0 0 0 1 3 5 6 9 11 14 17 17 17 19 20 18 18 20 21 21 21 20 19 22 28 31 32 31 27 24 23 22 18 17 17 16 17 19 16 13 11 10 9 9 8
0 0 0 0 0 0 0 0 2 4 7 11 13 16 17 18 20 23 25 23 22 22 23 20 18 17 16 19 27 31 31 28 25 23 22 21 18 17 16 16 17 18 16 13 10 9 9 8 6
0 0 0 0 0 0 0 0 2 5 8 11 15 18 22 23 25 26 30 30 27 25 25 22 18 17 18 21 27 30 31 30 27 25 24 21 19 17 15 16 18 18 16 13 10 9 8 5 3
0 0 0 0 0 0 1 2 5 7 10 13 17 21 24 27 27 29 33 34 30 28 28 26 25 24 25 27 29 30 31 31 29 28 27 25 23 19 16 17 18 18 15 12 10 9 5 2 1
0 0 0 0 0 1 2 3 6 9 11 15 18 21 25 27 28 30 32 32 31 30 29 29 31 33 32 32 32 30 29 27 28 29 30 29 25 21 18 18 19 17 14 11 11 9 5 2 2
0 0 0 0 0 1 2 3 6 8 11 14 17 21 25 26 27 29 29 28 30 31 28 28 32 34 32 31 30 28 25 24 26 29 30 28 24 20 18 18 19 16 12 11 11 10 6 5 5
0 0 0 0 0 0 1 3 6 8 9 11 14 19 23 25 24 25 24 24 27 29 27 26 26 27 26 25 24 24 22 22 25 27 27 24 20 19 19 18 17 14 10 10 10 8 7 6 6
0 0 0 0 0 0 1 4 7 9 8 9 11 17 22 23 22 21 19 21 23 26 26 24 21 21 21 21 20 20 21 22 23 25 24 21 18 19 19 16 14 12 11 10 9 7 7 6 6
0 0 0 0 0 0 1 4 8 9 8 9 12 16 21 24 22 20 18 18 21 23 23 21 18 17 18 18 18 18 19 20 21 22 22 19 17 17 17 15 14 13 12 11 9 8 8 8 7
0 0 0 0 0 0 1 5 8 8 9 11 14 18 22 24 23 21 19 19 21 22 21 19 17 15 15 16 16 15 16 17 18 19 19 16 13 13 14 15 15 13 11 10 8 8 10 9 9
0 0 0 0 0 0 2 5 7 8 8 11 17 21 23 23 22 23 22 21 22 22 22 21 17 15 16 17 16 14 12 13 14 16 16 12 9 10 12 14 13 11 10 9 8 8 10 10 10
0 0 1 1 1 1 2 4 7 9 9 11 17 22 22 21 22 25 25 24 23 22 22 21 19 18 18 18 16 13 11 10 11 13 13 11 8 9 12 14 12 10 11 10 8 9 9 10 10
0 0 1 2 2 3 3 5 8 10 11 12 15 18 20 21 22 23 24 23 22 20 20 20 20 19 18 17 15 12 10 8 8 10 11 10 10 11 13 14 13 11 11 10 9 9 9 9 9
0 0 1 2 3 3 2 4 9 12 13 13 13 15 18 20 19 18 19 18 18 18 17 18 18 17 15 14 13 11 9 6 6 7 8 9 10 11 13 14 13 12 11 11 10 10 9 7 7
0 0 1 2 3 2 1 3 8 13 13 14 14 15 15 14 12 12 13 13 15 15 15 16 16 15 13 12 12 10 7 5 5 6 7 7 8 9 10 12 13 13 12 12 11 10 7 5 5
0 0 1 2 2 1 1 3 8 11 12 13 15 15 13 9 6 7 9 11 13 14 13 14 16 16 13 12 11 9 7 5 5 6 7 7 7 8 9 11 12 12 12 11 10 9 6 5 5
0 0 0 1 1 1 1 4 9 10 11 12 14 15 12 8 5 6 8 11 13 13 12 13 14 15 13 11 10 8 7 6 5 6 7 8 8 8 9 10 11 11 10 8 8 7 6 5 4
0 0 0 0 0 0 2 6 10 11 10 10 11 11 11 10 8 6 7 11 13 13 12 11 11 12 12 11 9 7 6 6 6 6 7 7 8 9 9 9 9 8 6 5 5 5 5 4 3
0 0 0 0 0 0 2 7 10 10 7 6 5 6 7 9 7 4 4 9 11 11 11 10 10 10 10 10 8 5 3 3 4 5 5 7 8 7 7 8 6 4 3 2 2 3 3 4 4
0 0 0 0 0 0 1 5 8 8 5 3 2 4 6 6 5 3 3 6 9 9 9 9 9 10 10 9 7 5 2 2 2 2 3 5 7 6 6 6 4 1 1 0 1 2 3 3 4
0 0 0 0 1 1 1 2 5 6 4 2 2 5 6 5 4 4 4 5 7 8 7 6 7 8 8 7 6 5 3 2 1 1 1 4 6 6 6 5 2 0 0 1 2 3 2 2 3
0 0 0 1 2 2 1 2 3 5 4 2 2 5 6 5 4 4 5 6 6 6 5 4 5 6 6 6 6 5 4 3 2 1 1 4 5 5 5 4 2 1 1 2 3 3 1 1 2
Wind_Speed
8 11 10 8 7 6 4 1 2 5 8 9 9 9 11 12 10 8 6 8 15 17 16 15 14 13 11 10 9 9 9 8 8 7 7 7 7 7 7 6 6 5 5 4 4 4 3 2 1
10 12 10 7 5 4 1 2 3 6 8 8 8 9 10 11 12 9 8 9 15 17 14 14 14 12 11 10 10 9 9 8 8 7 7 7 7 6 6 6 5 5 4 4 4 3 3 3 2
12 15 9 6 5 4 1 2 3 6 6 7 8 9 9 8 10 7 8 10 13 15 14 15 14 12 11 10 10 9 8 7 7 7 7 7 6 6 6 5 5 5 4 4 3 3 3 3 3
9 9 7 6 5 3 1 1 2 4 5 6 7 9 10 9 8 8 9 11 14 15 15 14 14 13 11 10 9 8 8 7 6 6 6 6 6 6 6 6 6 5 5 5 4 4 3 3 4
10 8 9 8 4 2 0 1 2 4 5 6 9 10 10 11 11 10 8 10 13 15 14 14 13 13 11 9 8 8 7 7 6 6 6 6 6 6 6 6 5 5 5 5 5 5 4 4 4
8 8 8 5 2 3 1 4 3 4 5 6 9 10 8 9 9 8 9 9 12 14 15 13 14 13 11 10 8 8 7 7 7 6 6 6 6 6 6 6 5 5 5 5 5 5 5 5 6
10 9 8 6 4 1 2 4 3 5 5 6 6 8 8 8 7 8 8 9 10 13 13 11 11 11 12 10 9 8 7 7 7 6 6 7 7 7 7 6 6 6 6 6 6 6 7 7 7
9 9 10 7 4 1 3 3 4 5 5 5 5 6 7 7 7 8 8 8 8 10 10 9 11 10 9 9 11 10 8 7 7 7 7 8 9 9 9 8 7 8 8 8 7 8 8 8 9
13 10 8 5 2 1 2 3 3 5 6 8 9 10 11 9 8 7 7 7 6 7 7 7 8 8 7 8 9 10 9 8 8 7 8 7 6 7 7 8 9 9 9 9 9 9 9 9 10
9 7 7 4 3 2 2 1 1 4 5 8 10 10 12 9 8 7 6 6 6 6 6 5 5 5 4 4 5 5 5 6 5 4 5 5 4 3 5 7 10 10 10 10 10 11 10 9 6
7 8 6 4 4 3 1 1 3 4 4 7 9 9 9 9 8 7 6 6 6 5 5 5 5 3 2 2 2 1 1 2 3 3 2 2 3 2 2 2 5 6 8 6 7 8 6 5 3
8 6 6 3 2 1 1 1 4 5 6 7 8 9 8 7 6 6 6 6 5 6 6 6 5 4 3 3 1 1 0 1 1 2 1 2 1 1 1 1 2 3 3 3 3 3 3 3 4
7 4 4 3 1 1 2 2 3 4 7 8 8 9 7 7 6 6 6 6 6 6 5 5 4 4 3 2 1 1 0 0 1 1 1 1 1 1 1 1 1 2 2 2 2 2 2 3 4
4 4 4 5 3 4 3 3 4 6 7 8 7 7 7 6 6 6 6 5 6 6 5 4 4 4 3 1 1 1 1 1 1 1 1 1 1 1 1 2 2 2 2 1 2 3 3 3 3
6 7 7 7 6 4 4 3 4 9 8 7 7 6 6 6 6 6 5 5 5 5 4 3 3 4 2 2 1 1 1 1 1 0 1 1 1 2 2 2 1 1 2 2 2 2 2 3 4
10 10 8 6 6 5 5 3 6 9 8 7 7 6 6 6 5 7 6 5 6 5 4 2 3 3 2 1 1 1 1 1 1 1 0 0 1 2 2 2 1 2 2 2 2 2 2 3 3
8 7 5 4 5 4 5 4 7 7 7 7 7 6 6 5 5 6 5 6 6 5 2 2 3 2 2 2 2 2 1 1 1 1 1 1 1 1 2 2 1 2 2 2 3 1 2 3 3
7 6 5 3 2 3 2 3 5 6 6 6 7 6 6 5 5 5 5 5 5 5 2 1 2 2 1 1 2 2 2 1 1 1 0 1 2 2 2 2 1 2 2 2 2 2 2 3 3
8 7 6 4 2 3 2 4 4 6 6 7 6 6 6 5 5 5 5 4 5 4 2 2 2 2 1 1 2 2 2 2 2 1 1 1 2 2 2 2 2 2 1 2 3 3 3 3 2
8 9 8 4 2 2 2 4 4 6 6 6 6 5 6 5 5 5 4 3 3 3 3 2 2 1 1 1 2 1 2 3 2 2 1 1 2 2 2 1 2 2 1 2 3 3 2 3 2
8 8 7 6 5 6 5 4 4 6 7 6 5 6 5 5 4 4 4 4 2 1 1 2 2 1 1 2 1 2 1 2 2 2 2 2 2 2 2 2 2 1 2 2 3 3 4 3 2
7 5 6 7 8 7 7 4 3 6 6 6 5 5 4 4 4 3 3 2 2 1 2 2 1 1 1 2 2 3 2 3 3 2 2 2 2 3 2 2 2 1 2 2 3 2 3 3 3
8 8 9 11 9 9 7 3 2 4 4 3 4 4 4 4 3 2 2 1 2 1 2 2 1 1 1 1 2 2 2 2 2 3 3 3 3 3 2 2 2 2 2 3 3 2 2 2 3
7 8 12 10 7 7 6 4 3 4 5 3 4 5 4 3 3 3 2 2 2 2 2 2 2 1 1 1 1 1 2 3 3 3 3 3 2 2 1 2 1 2 2 2 3 3 3 2 3
6 7 6 6 4 4 4 2 4 5 5 4 5 5 5 4 4 3 2 3 3 2 2 2 1 0 1 1 1 1 3 3 3 3 3 3 2 1 1 2 1 2 2 2 2 2 2 2 3
6 7 6 6 6 6 5 1 6 6 7 8 7 6 5 4 4 4 3 3 2 2 2 2 0 1 1 1 1 1 2 3 2 3 3 3 2 2 1 1 2 2 2 2 2 2 2 2 3
6 7 7 7 8 6 1 5 7 7 8 7 6 5 5 5 5 4 4 4 2 2 2 2 1 1 1 1 1 2 2 3 3 3 3 2 2 3 2 2 2 2 2 2 3 2 2 2 2
6 7 5 5 6 6 2 2 3 3 5 5 4 5 5 5 4 4 4 4 3 2 2 2 1 1 1 1 1 2 2 3 3 3 3 2 3 3 2 2 2 2 1 2 2 3 2 2 2
5 5 5 6 5 6 5 2 5 5 4 4 4 5 5 4 4 4 5 4 4 3 2 2 2 1 1 1 1 2 2 2 3 2 2 2 2 2 2 2 2 2 1 1 2 3 3 2 2
5 6 5 5 6 6 5 2 6 6 5 4 5 5 5 5 5 5 5 4 4 5 4 3 3 2 2 2 1 2 3 2 2 2 2 2 3 3 3 3 3 2 2 2 2 3 2 2 3
Wind_Direction
249 247 238 243 241 244 259 337 44 49 62 62 50 50 51 42 47 81 99 97 109 117 124 127 126 130 132 131 127 126 129 132 133 134 136 136 137 135 135 136 139 141 143 147 149 157 165 173 180
258 251 242 244 258 275 312 41 59 64 67 79 75 70 64 61 69 94 104 110 116 121 129 127 129 133 134 132 131 133 138 140 140 142 145 144 144 143 145 148 153 154 156 165 168 175 187 196 206
260 256 255 246 256 263 314 31 51 81 80 71 78 72 57 62 74 93 111 124 118 119 123 126 133 133 133 134 136 137 139 143 146 149 152 151 152 153 154 160 166 168 173 182 184 189 204 218 229
254 240 234 249 257 276 262 316 32 67 83 77 76 77 72 62 79 95 113 116 113 115 118 128 133 134 135 136 138 139 142 147 152 156 158 157 159 161 166 173 177 181 188 193 195 204 214 227 236
243 255 245 249 240 275 241 128 77 60 59 60 84 85 77 74 87 100 109 108 111 115 118 132 133 135 139 141 142 145 152 156 160 163 165 166 169 172 177 184 186 190 197 203 205 208 215 226 239
251 251 258 270 258 245 141 68 48 68 71 70 83 94 84 88 94 101 103 108 109 115 119 131 137 138 143 150 154 159 164 169 169 171 173 176 180 183 185 189 191 199 207 213 216 220 225 231 240
258 276 278 279 274 216 98 90 50 63 59 50 71 94 104 93 97 101 99 102 108 116 125 137 141 145 150 156 162 166 170 172 174 177 183 188 192 195 197 197 202 209 215 221 225 229 229 233 238
254 276 282 279 278 39 72 87 80 76 69 69 64 93 113 117 115 108 104 102 108 114 122 137 145 151 159 165 167 169 169 171 178 187 194 203 208 208 209 206 210 215 220 225 228 231 233 235 239
249 260 275 280 304 2 77 65 84 85 88 76 79 92 112 124 117 113 107 100 97 104 116 131 135 147 159 163 164 171 175 180 185 193 203 213 218 213 208 210 209 216 221 226 229 232 234 237 240
238 258 273 308 19 17 69 9 86 95 88 91 94 101 118 126 122 115 110 108 101 102 104 109 117 126 143 144 146 174 177 175 185 191 201 209 223 224 209 194 207 215 221 228 232 238 238 236 234
243 255 277 312 32 24 1 260 84 105 102 98 106 115 120 120 115 113 108 100 95 92 93 87 83 87 89 91 124 153 169 161 178 187 209 222 225 222 219 204 202 215 219 221 224 231 233 232 236
249 259 289 319 9 327 302 52 66 76 92 93 109 124 126 121 116 115 111 104 101 84 75 72 65 62 57 57 79 146 132 156 166 158 208 254 248 268 262 248 224 220 215 213 219 234 234 246 257
249 265 255 280 276 351 307 116 103 93 99 108 118 125 124 121 111 95 96 97 89 83 73 74 72 66 47 38 346 43 16 220 175 170 177 240 227 249 260 260 249 250 230 213 229 248 256 256 259
282 280 269 255 232 206 224 171 160 127 122 121 122 122 120 115 104 99 92 88 85 81 78 73 74 70 55 32 12 323 281 269 235 179 171 251 248 262 264 254 248 255 255 233 236 238 251 255 256
272 264 249 235 231 210 214 211 153 133 138 136 131 122 112 107 103 93 98 93 83 84 90 83 91 74 47 20 335 325 281 285 296 229 188 223 258 260 266 256 234 254 252 247 242 252 247 251 254
245 244 242 214 213 201 214 198 143 146 156 147 136 124 117 105 108 99 98 93 82 72 82 70 57 75 47 5 328 304 298 327 304 297 226 219 278 272 265 260 251 266 256 246 246 244 255 260 263
250 247 251 210 208 212 216 176 141 156 156 150 142 131 124 116 109 102 98 96 94 88 69 68 65 65 23 355 335 310 320 330 313 319 346 358 299 285 285 271 260 267 264 251 265 242 252 261 264
298 282 267 257 209 251 221 153 147 150 155 152 139 139 136 132 124 111 107 109 108 108 117 95 85 74 6 4 324 321 325 326 331 6 15 323 299 300 291 276 272 280 277 274 276 271 247 251 254
305 298 290 283 237 259 219 170 169 161 159 143 144 149 138 137 123 118 114 113 114 123 133 116 84 76 4 1 332 331 334 330 324 315 12 340 316 312 282 291 296 269 265 279 278 275 266 255 249
286 281 281 283 247 264 233 199 184 163 144 143 144 131 132 125 123 121 111 98 99 133 139 124 92 61 0 359 321 310 330 314 309 327 326 307 291 281 280 285 284 285 289 278 275 275 268 274 248
274 275 289 298 286 257 249 232 198 143 124 128 123 120 120 124 121 123 123 108 104 118 115 74 73 56 360 324 323 342 326 304 331 332 311 299 291 283 293 282 277 287 285 281 276 276 271 272 268
283 289 286 279 272 267 247 250 163 132 122 118 118 113 114 117 121 127 124 131 141 108 96 95 84 70 360 322 337 327 330 330 328 322 308 312 296 289 281 278 271 278 287 288 279 275 276 272 276
303 314 291 277 274 272 256 253 130 137 130 122 118 111 107 100 95 93 93 93 81 76 89 95 85 58 30 337 342 332 335 328 325 313 300 292 271 256 264 275 282 289 284 284 286 288 279 279 284
297 296 285 273 267 259 261 257 158 154 147 141 116 95 90 85 80 71 60 55 59 48 60 81 92 68 14 329 347 334 315 306 302 300 294 296 280 258 273 286 306 302 289 292 285 282 281 286 291
306 306 297 289 280 285 289 274 102 108 106 101 89 90 83 76 65 56 42 36 39 26 32 55 76 348 315 315 308 306 299 294 292 306 308 304 303 304 320 315 304 304 293 289 291 284 285 292 286
306 299 303 313 309 297 279 114 113 105 85 79 70 72 75 68 56 40 32 37 27 22 22 19 356 294 310 318 320 298 296 302 304 309 303 296 309 300 300 308 298 298 305 308 304 296 298 310 291
296 298 316 300 288 283 323 98 109 87 79 70 62 67 62 57 42 29 27 25 25 21 12 348 343 292 292 296 289 283 310 314 313 301 291 300 309 306 347 315 305 305 321 322 314 296 307 314 311
284 314 318 305 310 303 320 69 107 91 79 66 47 56 50 48 35 28 32 27 24 14 359 8 1 267 280 303 317 331 312 300 304 306 308 320 326 325 318 311 305 310 332 320 313 300 292 296 312
317 321 319 315 319 315 315 50 124 121 87 66 57 50 48 38 34 28 28 24 19 8 10 26 17 5 338 345 346 329 315 322 324 314 323 337 327 320 316 314 307 299 289 293 302 301 308 323 322
320 321 320 315 321 316 310 69 99 101 86 63 54 55 48 36 30 29 29 25 16 3 5 22 5 2 4 355 346 325 320 329 328 337 345 344 331 319 318 312 301 306 323 323 310 315 336 322 324